STARLINK-2506 (48315 NORAD) Tracking and Keplerian Element Data

This shows tracking and keplerian element data for the satellite.

Feedback or suggestion? Click here.




ElementValue
Catalog48315
NameSTARLINK-2506
Epoch Orbit1565
Epoch Day215.03670471
Epoch Year2021
RAAN71.8685
Inclination53.0582
Eccentricity0.0002046
Argument of Perigee93.2448
Mean Anonmoly266.8775
Mean Motion15.06384886
Decay Rate-1.444E-05
L11 48315U 21036AR 21215.03670471 -.00001444 00000-0 -78065-4 0 9997
L22 48315 53.0582 71.8685 0002046 93.2448 266.8775 15.06384886 15650

Live tracking and technical data element details for STARLINK-2506 (NORAD 48315). STARLINK-2506 can be tracked NOW for your location showing map with azimuth and elevation plus other details from your city location.

Track the satellite on the map from your city or location and see movement details for azimuth, elevation, latitude, longitude, range, height, and movement on the map or in text.







IsCatalogInMostPopularTable: catalog: 48315, numindb: 37
Update: records affected: 1



GetName: 48315 STARLINK-2506

Hit Count: updated at: Tue, 03 Aug 2021 19:47:17 GMT